Location: Unspecified
(0.0000°N, 0.0000°E)
Time: 16:10:54
(UTC+00:00)

TECHNOSAT - Pass Details

Date: 15 June 2023
Orbit: 576 x 593 km, 97.4° (Epoch: 24 September)

Event Time Altitude Azimuth Distance (km) Brightness Sun altitude
Rises 19:24:28 0° 342° (NNW) 2,790 ? -19.2°
Reaches altitude 10° 19:27:14 10° 322° (NW) 1,890 ? -19.8°
Maximum altitude 19:29:54 17° 281° (WNW) 1,495 ? -20.4°
Drops below altitude 10° 19:32:34 10° 241° (WSW) 1,890 ? -21.0°
Sets 19:35:21 0° 220° (SW) 2,789 ? -21.7°
